FW4407 Weather Reports


time (UTC)temp
C
wind
direction
speed
KPH
gust
KPH
rain 1hr
cm
rain 24hr
cm
rain mn
cm
humidity
%
barometer
mb
20260507182040 20 0.0 0.0 0.00 0.00 0.00 49 1017.6
20260507181045 20 0.0 0.0 0.00 0.00 0.00 47 1017.5
20260507180030 20 0.0 0.0 0.00 0.00 0.00 47 1017.5
20260507175038 20 290 0.0 3.2 0.00 0.00 0.00 46 1017.3
20260507174043 20 15 0.0 3.2 0.00 0.00 0.00 46 1017.5
20260507173048 21 0.0 0.0 0.00 0.00 0.00 47 1017.5
20260507172016 21 0.0 0.0 0.00 0.00 0.00 46 1017.5
20260507171021 21 210 0.0 3.2 0.00 0.00 0.00 36 1017.1
20260507170026 21 0.0 0.0 0.00 0.00 0.00 37 1016.9
20260507165031 22 0.0 0.0 0.00 0.00 0.00 36 1016.8
20260507164039 22 0.0 0.0 0.00 0.00 0.00 36 1016.7
20260507163024 22 185 0.0 8.0 0.00 0.00 0.00 35 1016.8
20260507162029 22 251 0.0 8.0 0.00 0.00 0.00 34 1016.9
20260507161017 22 235 0.0 3.2 0.00 0.00 0.00 34 1017.0
20260507160022 23 254 1.6 8.0 0.00 0.00 0.00 35 1016.9
20260507155027 23 230 0.0 8.0 0.00 0.00 0.00 35 1017.0
20260507154015 23 253 1.6 12.9 0.00 0.00 0.00 33 1017.1
20260507153020 24 244 4.8 16.1 0.00 0.00 0.00 32 1017.3
20260507152025 24 224 3.2 12.9 0.00 0.00 0.00 32 1017.5
20260507151030 24 240 1.6 12.9 0.00 0.00 0.00 32 1017.2
20260507150018 24 253 1.6 16.1 0.00 0.00 0.00 32 1017.4
20260507145023 24 254 1.6 16.1 0.00 0.00 0.00 32 1017.2
20260507144028 24 223 3.2 12.9 0.00 0.00 0.00 32 1017.3
20260507143016 25 240 4.8 16.1 0.00 0.00 0.00 32 1017.3
20260507142021 25 240 4.8 16.1 0.00 0.00 0.00 31 1017.2
20260507141046 25 240 4.8 16.1 0.00 0.00 0.00 30 1017.1
20260507140031 26 237 4.8 16.1 0.00 0.00 0.00 29 1016.9
20260507135019 26 229 4.8 16.1 0.00 0.00 0.00 29 1016.9
20260507134024 25 236 4.8 16.1 0.00 0.00 0.00 29 1016.8
20260507133029 25 237 1.6 12.9 0.00 0.00 0.00 30 1016.8
20260507132017 24 234 3.2 20.9 0.00 0.00 0.00 37 1016.8
20260507131042 23 278 1.6 12.9 0.00 0.00 0.00 41 1016.8
20260507130027 23 258 1.6 8.0 0.00 0.00 0.00 44 1017.1
20260507125015 24 269 3.2 12.9 0.00 0.00 0.00 44 1017.2
20260507124020 24 249 3.2 16.1 0.00 0.00 0.00 43 1017.2
20260507123045 25 245 3.2 12.9 0.00 0.00 0.00 45 1017.2
20260507122030 25 266 3.2 12.9 0.00 0.00 0.00 44 1017.5
20260507121018 25 258 3.2 16.1 0.00 0.00 0.00 43 1017.5
20260507120023 25 20 1.6 8.0 0.00 0.00 0.00 43 1017.5
20260507115028 25 270 3.2 16.1 0.00 0.00 0.00 46 1017.6
20260507114016 25 239 3.2 12.9 0.00 0.00 0.00 45 1017.6
20260507113041 25 244 3.2 12.9 0.00 0.00 0.00 44 1017.6
20260507112027 25 226 4.8 12.9 0.00 0.00 0.00 46 1017.9
20260507111031 25 283 4.8 16.1 0.00 0.00 0.00 49 1017.6
20260507110039 25 275 1.6 12.9 0.00 0.00 0.00 51 1017.6
20260507105024 25 245 4.8 16.1 0.00 0.00 0.00 49 1017.6
20260507104029 25 251 4.8 16.1 0.00 0.00 0.00 46 1017.6
20260507103037 25 243 0.0 12.9 0.00 0.00 0.00 46 1017.2
20260507102022 25 322 0.0 8.0 0.00 0.00 0.00 47 1017.3
20260507101027 25 229 4.8 20.9 0.00 0.00 0.00 43 1017.4
20260507100032 25 285 1.6 8.0 0.00 0.00 0.00 46 1017.3
20260507095020 25 247 3.2 16.1 0.00 0.00 0.00 44 1017.3
20260507094025 25 240 3.2 12.9 0.00 0.00 0.00 41 1017.2
20260507093030 25 243 3.2 12.9 0.00 0.00 0.00 40 1017.3
20260507092018 25 322 3.2 12.9 0.00 0.00 0.00 41 1017.2
20260507091023 25 297 1.6 12.9 0.00 0.00 0.00 40 1017.3
20260507090047 25 181 1.6 12.9 0.00 0.00 0.00 41 1017.2
20260507085015 25 257 1.6 8.0 0.00 0.00 0.00 41 1017.2
20260507084021 25 273 0.0 3.2 0.00 0.00 0.00 40 1017.3
20260507083026 24 273 0.0 3.2 0.00 0.00 0.00 40 1017.3
20260507082051 24 236 1.6 8.0 0.00 0.00 0.00 41 1017.3
20260507081039 23 232 3.2 12.9 0.00 0.00 0.00 43 1017.3
20260507080024 23 273 0.0 8.0 0.00 0.00 0.00 42 1017.4
20260507075028 23 266 1.6 8.0 0.00 0.00 0.00 44 1017.3
20260507074017 23 227 1.6 3.2 0.00 0.00 0.00 45 1017.1
20260507073530 23 0.0 0.0 0.00 0.00 0.00 45 1016.9
20260507072519 23 0.0 0.0 0.00 0.00 0.00 44 1016.9
20260507071523 23 230 1.6 8.0 0.00 0.00 0.00 45 1017.0
20260507070549 23 222 0.0 3.2 0.00 0.00 0.00 45 1017.2
20260507065516 22 235 1.6 8.0 0.00 0.00 0.00 46 1017.2
20260507064522 23 251 3.2 12.9 0.00 0.00 0.00 46 1017.0
20260507063526 22 0.0 0.0 0.00 0.00 0.00 47 1016.9
20260507062531 22 254 1.6 8.0 0.00 0.00 0.00 46 1016.9
20260507061519 21 0.0 0.0 0.00 0.00 0.00 44 1016.9
20260507060524 20 0.0 0.0 0.00 0.00 0.00 47 1016.8
20260507055529 20 0.0 0.0 0.00 0.00 0.00 50 1016.5
20260507054518 20 0.0 0.0 0.00 0.00 0.00 52 1016.5
20260507053523 20 8 0.0 3.2 0.00 0.00 0.00 51 1016.2
20260507052527 19 0.0 0.0 0.00 0.00 0.00 52 1016.2
20260507051516 18 116 0.0 3.2 0.00 0.00 0.00 53 1016.1
20260507050521 17 150 0.0 3.2 0.00 0.00 0.00 54 1016.2
20260507045547 16 0.0 0.0 0.00 0.00 0.00 57 1016.3
20260507044530 16 16 1.6 8.0 0.00 0.00 0.00 59 1016.1
20260507043518 16 0.0 0.0 0.00 0.00 0.00 58 1016.1
20260507042523 15 0.0 0.0 0.00 0.00 0.00 58 1016.1
20260507041528 15 0.0 0.0 0.00 0.00 0.00 61 1016.1
20260507040516 14 0.0 0.0 0.00 0.00 0.00 62 1016.2
20260507035522 14 0.0 0.0 0.00 0.00 0.00 64 1016.2
20260507034526 14 0.0 0.0 0.00 0.00 0.00 65 1016.2
20260507033551 14 0.0 0.0 0.00 0.00 0.00 66 1016.1
20260507032520 14 0.0 0.0 0.00 0.00 0.00 67 1016.1
20260507031525 14 0.0 0.0 0.00 0.00 0.00 67 1016.0
20260507030529 14 0.0 0.0 0.00 0.00 0.00 67 1016.0
20260507025517 14 0.0 0.0 0.00 0.00 0.00 67 1015.8
20260507024523 14 0.0 0.0 0.00 0.00 0.00 67 1015.9
20260507023547 14 0.0 0.0 0.00 0.00 0.00 66 1016.1
20260507022515 13 0.0 0.0 0.00 0.00 0.00 66 1015.8
20260507021520 13 0.0 0.0 0.00 0.00 0.00 66 1015.8
20260507020525 13 0.0 0.0 0.00 0.00 0.00 66 1015.7
20260507015531 14 0.0 0.0 0.00 0.00 0.00 66 1015.7
20260507014518 14 0.0 0.0 0.00 0.00 0.00 66 1015.7
20260507013523 15 0.0 0.0 0.00 0.00 0.00 65 1015.6
20260507012529 15 0.0 0.0 0.00 0.00 0.00 64 1015.4
20260507011516 15 0.0 0.0 0.00 0.00 0.00 64 1015.2
20260507010522 15 0.0 0.0 0.00 0.00 0.00 65 1015.2
20260507005526 15 0.0 0.0 0.00 0.00 0.00 65 1015.2
20260507004531 15 0.0 0.0 0.00 0.00 0.00 65 1015.2
20260507003519 15 0.0 0.0 0.00 0.00 0.00 64 1015.2
20260507002524 15 0.0 0.0 0.00 0.00 0.00 64 1015.1
20260507001550 15 0.0 0.0 0.00 0.00 0.00 63 1015.2
20260507000517 15 0.0 0.0 0.00 0.00 0.00 63 1015.2
20260506235522 15 0.0 0.0 0.00 0.00 0.00 62 1015.3
20260506234527 16 0.0 0.0 0.00 0.00 0.00 61 1015.6
20260506233515 16 0.0 0.0 0.00 0.00 0.00 61 1015.6
20260506232520 16 0.0 0.0 0.00 0.00 0.00 61 1015.9
20260506231525 16 0.0 0.0 0.00 0.00 0.00 61 1015.9
20260506230531 16 0.0 0.0 0.00 0.00 0.00 61 1015.9
20260506225538 16 0.0 0.0 0.00 0.00 0.00 61 1015.9
20260506224523 16 0.0 0.0 0.00 0.00 0.00 60 1015.9
20260506223528 16 0.0 0.0 0.00 0.00 0.00 60 1015.9
20260506222515 16 0.0 0.0 0.00 0.00 0.00 59 1015.9
20260506221521 17 0.0 0.0 0.00 0.00 0.00 60 1016.0
20260506220526 17 0.0 0.0 0.00 0.00 0.00 59 1016.0
20260506215526 17 0.0 0.0 0.00 0.00 0.00 58 1016.0
20260506214531 17 0.0 0.0 0.00 0.00 0.00 55 1016.1
20260506213519 17 0.0 0.0 0.00 0.00 0.00 53 1016.2
20260506212524 17 0.0 0.0 0.00 0.00 0.00 52 1016.3
20260506211529 17 0.0 0.0 0.00 0.00 0.00 51 1016.3
20260506210517 17 0.0 0.0 0.00 0.00 0.00 52 1016.3
20260506205522 17 0.0 0.0 0.00 0.00 0.00 52 1016.5
20260506204527 17 0.0 0.0 0.00 0.00 0.00 51 1016.5
20260506203515 18 0.0 0.0 0.00 0.00 0.00 50 1016.5
20260506202520 18 0.0 0.0 0.00 0.00 0.00 49 1016.5
20260506201525 18 0.0 0.0 0.00 0.00 0.00 49 1016.5
20260506200530 18 0.0 0.0 0.00 0.00 0.00 47 1016.2
20260506195518 19 0.0 0.0 0.00 0.00 0.00 47 1016.2
20260506194523 19 0.0 0.0 0.00 0.00 0.00 46 1016.2
20260506193528 19 0.0 0.0 0.00 0.00 0.00 46 1016.0
20260506192515 19 0.0 0.0 0.00 0.00 0.00 45 1015.9
20260506191521 19 0.0 0.0 0.00 0.00 0.00 45 1015.9
20260506190526 20 0.0 0.0 0.00 0.00 0.00 44 1015.8
20260506185531 20 0.0 0.0 0.00 0.00 0.00 43 1015.6
20260506184534 20 0.0 0.0 0.00 0.00 0.00 43 1015.7
20260506183525 20 0.0 0.0 0.00 0.00 0.00 44 1015.6
20260506182529 20 0.0 0.0 0.00 0.00 0.00 44 1015.4